Home   Weather   Cabinda   Past weeks

Flag for Angola Past Weather in Cabinda, Angola — Yesterday and Last 2 Weeks

Now
81 °F

Scattered clouds.


Feels Like: 87 °F
Forecast: 77 / 81 °F
Wind: 7 mph from South

Location: Pointe Airport-Noire

Current Time: Dec 4, 2016 at 7:36:05 pm

Latest Report: Dec 4, 2016 at 6:00 pm


Visibility: 5 mi

Pressure: 29.83 "Hg

Humidity: 89%

Dew Point: 77 °F

Location of CabindaLocation

Past Weather in Cabinda — Graph

°F

Cabinda Temperature Yesterday

Maximum temperature yesterday: 84 °F (at 12:00 pm)
Minimum temperature yesterday: 77 °F (at 5:00 pm)
Average temperature yesterday: 80 °F

High & Low Weather Summary for the Past Weeks

 TemperatureHumidityPressure
High88 °F (Nov 23, 11:00 am)100% (Nov 21, 3:00 am)29.95 "Hg (Nov 21, 3:00 am)
Low73 °F (Nov 29, 5:00 am)66% (Nov 23, 11:00 am)29.74 "Hg (Nov 19, 6:00 pm)
Average82 °F85%29.85 "Hg
* Reported Nov 19 6:00 pm — Dec 4 6:00 pm, Cabinda, Weather by CustomWeather, © 2016

Note: Actual official high and low records may vary slightly from our data, if they occured in-between our weather recording intervals... More about our weather records

Advertising

Cabinda Weather History for the Previous 24 Hours

Scroll right to see more
 ConditionsComfort  
Time TempWeatherWind HumidityBarometerVisibility
6:00 pm
Sun, Dec 4
81 °FScattered clouds.7 mph89%29.83 "Hg5 mi
5:00 pm81 °FScattered clouds.9 mph89%29.83 "Hg5 mi
4:00 pm82 °FThunderstorms. Scattered clouds.12 mph79%29.80 "Hg5 mi
3:00 pm82 °FThunderstorms. Broken clouds.9 mph84%29.83 "Hg5 mi
2:00 pm82 °FBroken clouds.9 mph84%29.83 "HgN/A
1:00 pm84 °FBroken clouds.9 mph79%29.86 "HgN/A
12:00 pm82 °FLight rain. Scattered clouds.8 mph84%29.89 "HgN/A
11:00 am84 °FPartly sunny.10 mph79%29.89 "HgN/A
10:00 am84 °FScattered clouds.8 mph79%29.92 "HgN/A
9:00 am82 °FBroken clouds.5 mph79%29.92 "HgN/A
8:00 am79 °FScattered clouds.3 mph89%29.89 "HgN/A
7:00 am77 °FRain. Broken clouds.5 mph94%29.89 "Hg4 mi
6:00 am77 °FLight rain. Broken clouds.5 mph94%29.86 "Hg4 mi
5:00 am77 °FLight rain. Partly cloudy.2 mph94%29.83 "Hg4 mi
4:00 am77 °FThunderstorms. Passing clouds.5 mph94%29.83 "Hg4 mi
3:00 am77 °FThunderstorms. Passing clouds.2 mph94%29.86 "Hg4 mi
2:00 am77 °FThunderstorms. Passing clouds.3 mph94%29.86 "Hg4 mi
1:00 am77 °FThunderstorms. Passing clouds.8 mph94%29.89 "Hg5 mi
12:00 am77 °FLight rain. Passing clouds.3 mph94%29.89 "Hg5 mi
11:00 pm
Sat, Dec 3
77 °FLight rain. Passing clouds.5 mph94%29.89 "Hg5 mi
10:00 pm77 °FOvercast.2 mph94%29.86 "Hg5 mi
9:00 pm79 °FPassing clouds.3 mph94%29.86 "Hg5 mi
8:00 pm79 °FPartly cloudy.3 mph94%29.83 "HgN/A
7:00 pm79 °FPartly cloudy.5 mph89%29.80 "HgN/A
Weather by CustomWeather, © 2016

See weather overviewHow to use our weather pages